Retour au catalogue

STARLINK-32406

ActifCommunicationsVLEO
NORAD 61545·PAYLOAD·🇺🇸 United States

Lancé Oct 15, 2024 depuis Vandenberg Space Force Base

Loading…

Prochains Passages (prochaines 24 heures)

TLE

FraisSource: CelesTrak SupGP

Époque: Sep 14, 2026, 21:35 UTC

1 61545C 24184P   26257.89979167  .00022249  00000+0  65718-3 0  2573
2 61545  53.1594 212.0866 0001498  90.0236  71.2774 15.34386612    15

Suivez STARLINK-32406 en temps réel avec AllMySat

Download on the App Store